Theta_e
300 300 300 300 300 301 301 301 301 301 301 302 302 302 303 304 306 306 303 304 305 305 305 306 306 306 305 305 305 306 306 306 307 307 307 311 313 314 314 313 314 315 315 316 314 311 308 306 308 313 311 309 310 309 310 308 308 313 314 311 320 329 323 316 319 324 322 317 315 316 315 314 315 317 317 317 322 322 324 336 340 334 334 337 340 341 335
300 300 300 300 300 300 300 300 301 301 301 301 301 303 304 303 305 307 305 304 305 306 306 307 308 307 307 308 309 308 307 307 308 308 309 311 314 315 315 314 314 315 314 314 315 314 312 309 308 312 312 310 310 310 309 309 309 311 316 317 316 320 321 318 318 318 317 316 315 314 312 313 318 321 320 319 320 322 323 325 328 330 332 336 340 339 331
299 299 299 300 300 300 300 300 300 300 300 300 300 302 304 305 306 307 306 305 306 306 306 307 308 308 309 310 310 310 309 309 309 309 309 310 312 314 315 315 314 313 313 314 314 315 316 313 309 311 313 310 310 310 308 309 309 311 321 323 317 320 329 333 329 322 321 325 327 328 325 319 318 320 320 319 317 318 320 320 323 329 331 334 340 336 326
299 299 299 300 300 300 300 300 301 301 300 300 300 301 304 307 307 307 306 306 306 307 306 306 307 308 309 311 311 311 311 311 309 311 313 312 311 312 313 312 314 314 315 317 318 317 316 316 313 311 312 312 311 310 310 309 308 317 328 326 325 328 329 336 340 331 328 336 338 334 328 318 315 316 316 318 321 324 326 323 324 330 332 334 335 329 325
299 299 299 299 299 300 300 300 301 301 301 301 301 302 304 307 308 307 307 306 307 307 306 306 307 308 311 312 312 311 311 311 310 313 318 315 312 314 315 313 316 318 317 319 321 320 320 320 317 313 314 316 312 308 310 309 312 327 331 322 331 337 321 323 337 331 327 334 330 322 320 318 319 321 318 318 321 323 320 320 326 329 331 333 328 324 326
299 299 299 299 300 300 300 300 301 301 301 301 302 304 305 307 309 309 309 309 309 309 308 308 307 307 309 312 313 312 311 312 312 314 318 316 315 319 320 317 317 319 319 319 320 322 325 326 325 322 321 323 322 316 312 310 316 329 327 319 333 342 325 323 332 328 325 329 327 327 328 325 327 331 330 327 323 320 321 327 332 329 328 332 326 323 326
299 299 299 300 300 300 300 301 301 302 301 301 302 305 307 308 309 310 310 310 311 311 311 311 310 310 311 314 314 313 312 313 313 313 316 318 318 318 319 320 319 318 321 327 326 323 325 327 327 325 324 325 328 324 318 319 321 321 319 321 331 336 328 326 331 328 326 327 326 330 333 328 327 329 328 330 332 331 335 337 333 329 329 330 325 323 324
299 299 299 300 300 300 301 301 302 302 301 301 303 305 308 309 310 310 310 310 312 312 312 312 312 313 313 314 314 314 314 315 314 313 314 318 320 316 316 321 323 320 322 328 328 322 321 324 324 324 326 326 326 323 321 323 324 320 321 325 329 330 325 327 336 335 328 326 325 327 331 331 330 328 326 328 330 331 333 332 329 328 328 324 323 324 323
299 299 299 299 300 300 301 302 303 303 302 302 304 306 308 309 310 310 310 311 312 312 311 311 312 314 314 314 315 315 315 314 314 313 313 315 318 317 319 323 326 325 325 325 325 322 322 322 321 322 325 323 323 322 321 322 325 327 330 332 335 338 332 332 341 339 330 327 326 326 328 331 333 332 328 325 326 327 328 327 326 326 325 323 324 324 322
299 299 299 299 300 300 301 302 303 303 302 303 305 307 308 309 310 310 310 311 311 311 310 310 311 314 314 314 313 313 314 313 312 314 316 315 314 315 320 325 325 325 325 323 322 323 323 322 321 321 321 319 319 321 320 320 323 324 328 333 335 339 338 336 339 336 330 329 330 332 335 334 332 330 324 322 324 325 326 327 325 323 323 323 324 323 320
298 299 299 299 300 300 301 302 303 304 303 303 305 306 306 308 309 310 310 310 310 310 310 309 311 312 312 312 311 312 313 312 312 314 317 316 316 318 322 327 327 326 327 324 321 322 323 321 319 318 318 318 319 320 320 320 320 320 326 335 334 332 336 338 337 335 331 330 332 335 336 333 328 322 319 321 323 323 324 324 323 322 322 322 322 320 318
299 299 299 299 300 300 301 302 303 304 304 304 304 304 305 306 307 309 311 311 311 310 310 311 311 311 311 311 311 312 312 313 313 314 315 315 317 321 322 326 327 325 324 324 322 322 324 323 322 320 319 320 319 319 319 321 321 319 322 330 333 333 335 335 333 332 331 332 334 334 331 328 324 318 316 318 320 318 319 319 318 319 321 321 319 318 317
299 298 298 299 299 299 301 302 303 304 304 304 304 304 304 305 306 309 311 312 312 311 312 313 313 313 313 312 313 313 313 314 313 314 315 316 319 321 321 325 328 325 321 322 324 327 327 326 328 326 322 325 327 323 320 320 322 322 322 324 328 331 333 332 328 327 329 331 333 331 326 322 319 317 316 317 319 318 319 321 318 316 318 319 318 317 316
299 298 297 297 298 299 300 301 302 303 304 304 304 304 304 304 306 309 311 312 312 312 312 314 315 315 314 314 315 316 317 318 318 317 319 319 322 324 321 320 324 322 321 324 327 330 329 327 331 330 326 330 333 329 325 323 322 323 324 325 325 326 330 330 327 324 324 326 325 323 322 321 320 319 319 319 322 321 321 324 321 316 316 318 316 316 315
299 298 297 296 296 298 299 300 301 303 304 304 304 304 304 304 305 307 309 310 311 312 313 316 316 315 316 316 317 318 320 321 320 320 321 320 321 323 320 317 318 318 322 327 328 329 329 329 330 330 328 329 328 326 328 328 324 323 324 323 323 325 327 329 330 324 320 322 323 321 324 325 321 321 322 321 322 320 318 322 322 316 316 317 315 315 313
299 298 297 296 296 296 298 299 300 301 303 304 304 304 304 304 304 306 308 309 311 314 316 318 316 315 317 319 318 318 319 320 321 323 325 323 318 316 317 318 318 317 321 328 329 330 330 327 326 327 326 324 322 323 327 328 326 326 325 323 321 322 322 326 329 325 321 325 328 324 324 325 321 322 323 320 319 319 318 324 325 317 314 316 314 313 311
299 298 297 296 296 296 297 298 299 300 302 304 304 305 306 306 306 306 308 310 312 313 314 314 314 316 319 319 318 318 318 320 320 321 324 324 318 315 316 319 319 319 321 327 330 332 329 325 324 325 324 322 322 323 325 327 328 327 328 328 326 325 325 325 326 325 323 326 328 324 324 324 322 322 322 318 317 317 318 326 327 317 314 315 314 312 311
298 298 297 295 295 296 297 297 298 299 300 301 303 304 305 307 307 307 308 310 312 313 313 312 313 317 320 320 320 319 319 320 319 319 321 323 319 316 316 317 319 319 320 325 329 330 327 323 324 326 324 321 322 324 324 325 327 326 326 327 326 325 325 324 324 324 324 326 328 326 325 324 322 322 320 315 315 318 321 327 324 316 313 315 313 311 310
298 297 296 295 295 296 296 297 297 298 299 300 302 303 305 307 308 308 309 310 312 314 315 313 313 314 314 316 319 318 318 318 318 320 323 323 319 317 316 317 318 319 322 327 328 326 325 321 321 327 327 322 321 323 322 322 324 324 323 323 325 324 322 321 322 323 322 324 326 326 326 324 321 321 318 315 318 324 325 321 315 311 312 313 311 310 309
298 297 295 295 295 295 296 297 297 298 298 299 301 303 307 309 309 309 310 311 313 315 315 313 313 314 311 312 316 317 317 318 319 322 323 322 322 324 323 322 321 320 324 328 324 321 325 324 319 323 327 324 322 322 321 320 322 323 323 323 325 324 322 321 321 321 322 324 324 326 328 323 319 318 318 319 323 325 319 313 311 311 311 310 310 309 308
297 296 295 295 295 295 296 297 297 298 298 299 300 302 306 309 310 310 311 311 313 316 318 316 314 314 313 312 314 316 318 320 320 322 324 323 322 323 323 324 323 319 321 329 325 320 325 328 323 321 324 325 325 323 323 322 320 319 321 324 323 322 324 324 322 320 324 327 325 324 324 320 318 321 322 321 320 316 311 311 312 311 310 309 309 308 308
296 295 295 295 295 295 296 297 298 298 298 298 299 301 304 307 309 312 313 312 311 314 318 316 314 314 312 310 311 313 314 316 316 318 323 325 323 321 320 323 322 316 317 326 326 320 321 324 322 322 323 325 326 324 324 325 322 319 320 321 321 320 321 323 321 316 319 323 321 317 315 314 316 319 317 314 312 310 310 311 311 310 309 308 308 307 308
296 295 295 295 295 295 296 297 298 298 298 298 299 300 303 306 310 312 313 313 313 313 313 312 313 314 310 308 309 310 310 313 314 315 318 322 322 320 318 319 319 317 320 326 325 323 324 323 321 324 324 323 325 325 322 322 323 323 320 318 318 317 317 320 320 315 315 318 316 313 313 313 312 312 311 309 309 309 309 310 309 309 308 307 306 307 306
295 294 295 295 295 295 296 297 298 299 299 299 299 300 303 308 311 312 313 314 315 315 314 314 315 313 310 309 308 308 309 311 312 314 315 316 319 321 320 320 319 319 325 327 320 319 322 317 316 323 322 318 322 326 323 320 321 322 321 318 317 316 316 319 319 317 318 319 315 312 313 312 310 310 310 309 309 309 308 308 308 308 307 306 307 306 305
295 294 295 295 295 295 296 297 299 300 301 301 301 300 304 308 308 309 311 312 313 314 315 319 321 313 307 309 308 308 310 310 310 312 312 311 316 320 318 317 315 314 320 325 321 321 322 316 317 324 321 316 319 322 320 320 320 320 322 321 318 317 317 318 318 317 319 318 314 312 312 311 310 310 309 309 309 309 309 308 307 307 307 306 306 305 305
295 294 295 295 295 295 296 296 298 300 301 303 302 301 305 307 304 305 308 311 313 314 314 321 325 315 307 309 309 308 310 310 309 311 310 309 313 314 313 316 316 313 318 325 323 323 325 322 321 324 320 317 319 320 317 318 318 319 320 319 318 319 319 317 316 316 315 314 312 312 313 312 310 310 309 309 309 308 308 308 307 307 307 306 305 305 305
295 295 295 295 295 295 295 296 298 299 301 304 302 303 307 307 303 304 307 308 312 313 313 320 326 318 310 310 309 307 310 310 309 310 310 309 310 309 310 316 319 318 324 330 325 323 328 327 321 318 317 319 320 318 316 316 318 320 319 315 316 320 318 314 315 315 315 315 313 312 314 313 311 310 309 309 308 308 307 307 307 306 306 306 305 305 305
295 296 295 295 295 295 296 297 297 298 301 303 303 306 310 307 303 304 304 305 308 310 312 317 320 315 310 311 309 308 309 310 309 309 309 309 309 308 310 317 319 320 326 329 324 324 329 325 317 315 319 323 321 317 316 318 320 320 317 314 317 320 316 313 315 316 315 315 313 312 313 312 310 309 309 308 308 307 307 307 306 306 306 305 305 305 305
296 296 295 295 295 295 296 297 297 298 300 301 303 308 311 308 305 305 304 303 306 311 316 318 318 314 311 310 308 307 308 309 309 309 308 308 308 308 311 316 318 318 320 321 322 323 321 317 317 317 317 318 319 317 318 321 319 316 314 314 317 317 314 312 315 315 314 313 313 312 312 310 309 309 308 308 307 307 307 306 306 305 305 304 304 305 305
296 296 295 295 295 295 296 297 297 298 300 300 302 311 316 313 307 306 306 303 303 310 316 318 318 317 313 309 308 309 308 308 309 308 308 309 309 309 310 312 315 320 322 321 322 321 316 315 320 320 314 317 321 319 317 319 316 313 313 315 315 315 313 312 313 314 313 312 311 310 310 309 309 308 308 307 307 306 307 306 306 305 304 304 304 304 304
296 296 295 295 296 296 297 297 297 298 299 299 302 310 316 313 306 305 306 302 302 309 314 315 317 318 314 310 311 309 306 307 308 308 308 308 309 309 309 308 312 318 320 319 320 318 314 314 318 318 316 320 324 320 316 318 317 313 313 314 314 314 314 313 311 311 310 309 309 309 309 309 308 308 308 308 306 306 306 306 305 304 304 303 304 304 304
296 296 295 295 297 298 298 297 298 298 299 299 301 304 307 307 305 305 305 302 304 310 313 314 316 316 313 314 315 309 305 308 311 312 311 308 308 310 310 311 317 319 316 316 318 317 315 314 316 316 315 317 320 319 317 318 318 314 311 312 312 312 312 311 310 309 308 308 309 309 309 309 309 309 308 308 306 306 306 305 305 305 304 304 304 304 303
295 295 295 297 299 299 298 298 298 298 298 300 300 301 303 306 307 306 304 302 307 311 312 312 312 310 309 313 314 309 308 312 314 315 314 310 311 314 313 315 320 319 314 315 317 313 314 318 319 317 315 316 319 319 316 314 314 312 311 311 311 310 310 310 309 309 309 309 309 310 309 309 309 308 307 306 305 305 305 305 305 305 304 304 304 303 301
295 295 296 299 301 300 298 297 297 298 299 300 301 303 305 307 307 306 303 303 309 314 312 308 308 309 313 317 316 312 312 313 313 315 314 312 312 313 312 314 319 318 313 314 315 313 314 319 321 318 316 317 318 317 313 311 311 310 310 310 310 309 309 309 309 310 310 310 310 309 308 307 307 306 306 306 306 306 306 305 305 305 304 304 303 301 299
295 296 297 300 302 300 298 297 297 298 300 301 302 304 306 306 306 305 303 304 310 315 315 310 308 310 314 317 317 315 314 314 313 312 312 312 312 312 313 316 318 316 311 311 314 314 313 315 319 318 315 315 316 315 312 310 310 310 310 310 309 309 309 310 309 309 310 309 309 309 308 307 307 307 307 307 307 307 306 305 305 304 304 303 302 300 298
296 296 298 302 302 300 299 299 299 301 303 304 305 305 306 307 305 304 304 305 307 312 316 314 311 311 311 313 315 314 311 312 312 310 312 313 311 313 321 323 315 312 315 319 318 314 310 313 318 317 313 314 316 314 311 310 310 310 310 310 309 310 310 310 309 308 308 308 309 308 307 308 308 307 307 307 307 307 307 306 305 304 303 302 301 300 298
295 297 301 305 304 303 303 303 304 305 305 306 306 305 305 306 306 305 307 308 307 311 313 311 312 315 313 312 317 316 310 311 315 312 312 314 309 310 321 321 311 312 320 321 315 311 312 318 321 317 313 314 314 311 309 310 309 309 310 310 310 310 310 309 309 308 308 308 309 308 308 308 308 308 307 307 307 307 307 306 304 303 302 301 300 299 298
295 298 304 306 306 307 308 307 306 305 304 305 305 305 306 307 306 307 310 308 308 313 313 310 314 318 312 309 315 314 308 314 320 313 309 311 309 308 313 313 310 314 317 313 310 314 317 319 319 315 311 311 309 308 309 310 309 309 311 311 311 310 309 308 308 308 308 308 308 308 307 307 307 307 307 307 307 307 306 303 302 300 300 299 299 298 297
296 300 303 304 306 308 307 305 303 303 303 305 306 308 309 308 306 309 311 308 309 313 312 311 317 320 312 309 314 312 308 316 323 315 309 309 308 306 309 310 310 312 311 309 314 320 318 314 314 314 311 310 309 309 309 309 310 311 311 311 311 309 308 308 308 308 308 308 308 307 307 307 307 307 307 307 307 306 303 300 299 299 299 299 298 298 297
296 297 299 302 305 305 303 302 301 303 306 308 307 307 307 307 308 310 310 307 307 311 311 312 317 317 310 309 313 310 307 313 318 315 313 313 309 307 309 309 308 309 308 308 315 321 319 313 312 313 313 311 310 309 309 309 311 312 311 311 311 308 306 307 307 306 307 308 307 306 305 305 305 306 306 306 307 306 303 300 299 299 299 299 298 298 298
293 294 296 299 300 299 301 302 303 305 308 309 308 306 306 307 309 310 308 306 308 311 311 311 312 311 311 314 317 313 309 311 316 317 316 314 313 312 310 308 308 309 308 308 312 317 318 314 312 314 316 313 310 309 309 310 311 311 311 311 310 306 304 306 306 305 306 308 307 305 305 304 304 304 304 303 303 302 301 300 299 299 299 299 299 299 299
294 295 296 296 296 298 302 305 306 306 307 307 307 307 306 306 308 308 307 308 310 310 310 309 309 310 313 314 313 312 310 308 313 317 314 309 310 312 310 307 307 307 309 311 312 311 311 311 312 315 316 312 309 309 310 309 310 311 311 310 308 305 305 307 307 305 305 306 305 304 304 304 303 303 303 302 301 300 299 299 299 299 300 300 300 299 299
297 298 297 297 299 301 304 306 308 307 305 305 307 306 305 306 307 307 308 311 311 309 309 311 310 309 312 312 311 312 310 307 310 314 312 307 308 310 308 307 306 307 309 311 309 305 307 311 315 317 314 309 308 310 309 309 310 311 310 307 305 304 304 306 305 305 305 305 304 304 304 304 304 304 303 303 301 300 299 300 300 300 300 300 300 300 300
300 300 299 301 303 304 303 305 306 305 304 305 306 306 305 309 312 310 309 313 313 310 310 312 311 310 315 318 314 311 310 310 311 312 310 308 308 308 306 307 308 310 310 309 307 306 309 312 314 314 311 308 308 309 309 309 310 310 309 307 304 303 304 304 305 305 305 304 304 304 304 304 304 303 302 302 301 300 299 300 300 301 301 301 301 301 301
301 304 303 303 304 303 301 301 303 304 304 305 307 308 310 314 318 315 310 310 310 308 309 312 311 310 315 317 314 311 312 312 310 308 309 308 307 306 306 308 310 310 309 307 306 306 309 311 312 310 309 308 308 308 308 309 309 309 308 307 306 305 305 306 307 307 305 302 302 303 303 303 302 301 300 301 301 301 300 300 300 301 301 301 301 301 301
301 304 303 302 304 304 301 299 303 305 305 306 311 314 314 314 315 314 310 308 307 306 307 309 309 309 311 312 310 311 314 312 307 308 310 309 306 306 307 308 308 307 306 306 306 308 314 319 316 310 308 309 309 307 308 308 308 308 307 307 307 306 306 306 306 305 303 302 301 301 301 301 301 300 300 300 301 301 300 301 301 301 301 300 300 300 301
301 302 301 303 305 304 301 302 307 308 306 306 310 313 311 309 309 309 308 307 306 306 307 308 308 309 312 313 310 310 313 311 307 307 308 307 306 308 309 308 307 306 306 305 308 315 322 323 316 309 307 309 308 307 308 308 308 307 307 306 306 306 306 306 305 304 302 301 301 300 300 300 300 300 300 300 300 300 301 301 301 302 302 301 300 300 301
300 301 302 305 306 303 302 306 309 307 304 302 303 304 305 305 304 305 306 306 306 306 308 310 310 309 311 313 313 312 311 309 306 306 308 308 307 307 308 308 308 308 308 309 316 325 331 326 316 310 309 309 308 307 308 308 307 307 307 306 306 306 305 305 305 303 302 301 301 300 300 300 300 300 300 300 300 300 301 301 301 302 302 301 301 301 301
299 299 301 303 304 304 305 306 305 304 304 303 301 301 302 302 302 302 303 303 304 306 309 314 317 315 311 311 311 310 308 307 305 305 307 308 308 307 308 307 305 308 313 318 322 327 330 324 314 310 310 309 308 308 307 307 307 307 306 305 305 304 303 303 303 302 301 301 301 300 300 300 300 300 300 300 300 300 301 301 301 301 302 301 301 301 301
298 298 300 302 303 305 307 307 306 307 307 304 301 301 301 301 302 302 301 303 310 314 311 312 316 316 312 308 308 308 308 310 308 306 306 308 308 307 306 307 308 314 321 323 321 321 322 318 311 309 310 310 309 308 308 307 307 307 305 304 303 302 302 302 302 301 301 301 301 301 300 300 300 300 300 300 301 301 301 301 302 301 301 301 301 301 301
298 299 302 304 304 304 305 304 305 305 303 301 301 302 302 302 302 301 301 305 314 316 311 310 313 313 309 308 308 308 308 309 308 306 308 311 310 306 307 312 316 319 321 318 313 313 316 314 310 309 309 309 308 309 309 308 307 306 304 302 302 302 302 302 302 301 301 302 301 301 301 301 301 301 301 301 302 301 300 300 302 302 301 301 301 302 301
299 299 302 303 303 302 301 300 301 302 301 300 301 302 301 301 302 301 301 304 309 313 314 314 313 310 309 310 310 309 308 307 307 306 308 310 310 310 314 319 318 315 313 312 311 312 314 313 310 308 308 308 308 308 308 307 307 305 303 302 303 302 302 302 301 301 301 301 301 301 301 301 301 302 301 301 301 300 299 299 301 302 301 301 301 302 302
Wind_Speed
20 20 20 19 17 15 14 13 12 14 13 7 5 4 2 1 1 4 3 4 9 5 1 2 2 3 4 6 7 8 8 7 9 9 5 1 2 3 3 4 3 3 3 2 2 1 3 7 7 4 6 10 11 10 11 14 12 6 5 6 5 2 2 3 3 3 2 4 3 4 5 6 5 2 3 5 4 4 6 5 3 4 4 3 3 1 2
20 19 19 18 17 16 15 13 11 11 12 9 5 2 1 1 2 2 2 3 5 3 1 2 1 3 5 6 8 7 7 7 8 7 5 2 2 2 3 3 2 2 3 2 3 1 2 7 9 7 5 8 12 12 11 14 13 7 5 5 5 4 2 3 3 1 1 2 2 2 2 3 4 2 3 5 5 6 3 2 2 3 4 5 5 2 2
19 19 19 18 17 17 15 13 11 10 10 9 5 1 1 1 1 1 2 1 2 1 2 2 3 5 6 6 7 7 5 5 7 7 6 4 2 2 4 4 3 4 4 3 4 2 2 4 5 6 6 5 9 12 13 15 12 8 8 7 5 5 3 4 5 5 4 5 5 5 4 3 2 3 4 4 5 7 4 1 3 2 4 5 5 4 2
20 19 19 19 18 17 16 13 12 10 8 8 4 0 1 1 1 0 1 1 1 2 3 3 3 4 5 4 5 5 5 5 6 6 4 5 3 3 5 5 4 4 4 2 2 2 2 3 3 5 6 5 6 11 14 14 12 10 11 9 5 3 2 3 6 7 7 6 6 5 5 4 4 4 5 5 5 7 7 4 2 4 5 2 2 9 10
20 20 19 19 18 17 16 14 12 10 7 5 3 1 1 1 1 2 2 1 2 3 4 4 4 4 4 3 3 5 7 7 5 1 0 4 4 3 3 3 1 4 5 2 2 4 2 0 1 3 5 5 6 10 13 13 13 11 11 8 5 5 1 2 5 5 5 6 5 1 5 4 1 0 2 6 7 8 7 4 5 7 7 0 3 14 17
20 21 21 20 19 17 16 14 12 9 7 3 1 1 1 1 1 2 2 2 3 3 4 5 5 7 6 3 2 5 7 7 4 0 1 4 3 1 2 2 2 6 5 1 1 4 4 3 3 3 2 2 1 3 6 8 12 11 6 4 5 6 2 1 5 6 5 3 1 6 9 6 5 7 5 3 6 9 7 4 5 8 7 6 10 15 15
20 21 22 21 20 18 16 13 11 10 7 3 2 1 2 1 2 2 1 1 2 2 3 4 4 6 6 3 2 3 5 6 5 3 2 4 3 1 2 3 5 8 5 3 2 3 3 3 4 3 2 4 4 3 2 2 5 8 6 2 3 5 2 1 6 8 8 6 5 10 11 8 8 9 10 8 0 7 7 3 4 5 3 11 18 14 9
20 21 22 22 21 19 15 11 10 10 7 2 3 2 2 1 1 2 1 2 3 2 2 2 2 2 3 3 3 3 4 5 5 4 3 3 3 3 3 3 4 7 5 4 3 0 1 0 3 2 0 2 4 2 1 4 3 3 4 2 2 4 2 2 5 7 7 6 7 11 12 11 9 8 10 11 7 7 9 7 9 10 7 12 19 14 8
20 21 22 22 21 19 15 11 10 9 5 1 3 3 3 3 3 2 1 3 2 2 3 2 1 2 2 2 2 2 3 4 4 5 5 5 4 3 3 2 3 4 4 5 2 3 2 2 1 2 3 4 2 1 1 1 2 4 2 1 3 4 3 0 5 6 3 5 5 8 11 12 9 8 10 10 7 4 6 4 5 10 13 15 14 10 8
21 22 22 22 21 19 15 11 10 8 5 2 2 2 3 4 3 2 1 2 3 2 3 2 1 1 1 2 2 3 5 6 4 4 5 5 5 5 4 3 0 3 3 2 2 5 4 2 1 3 5 7 6 5 7 8 6 3 2 2 2 3 5 3 4 5 1 6 3 3 7 8 4 4 5 5 4 1 5 5 4 11 17 14 9 8 10
21 22 23 22 22 20 16 12 10 8 5 2 3 3 4 4 3 2 0 1 2 2 3 2 1 1 3 4 4 4 7 9 5 3 3 4 3 4 3 3 3 0 3 4 5 5 5 5 4 4 6 10 11 11 13 15 11 4 2 3 2 4 6 3 3 4 2 6 5 3 5 3 1 5 4 1 0 0 5 9 6 5 7 6 7 11 13
21 22 23 22 22 20 16 11 9 8 6 4 5 6 5 3 3 3 0 1 2 2 3 3 3 4 6 7 6 6 8 9 7 6 5 6 5 4 2 4 4 1 5 4 3 1 0 1 2 2 6 10 12 16 18 17 13 8 5 5 3 5 6 3 2 4 3 3 4 4 2 3 2 5 4 5 6 4 9 12 8 4 5 10 14 16 17
22 22 24 24 22 20 17 12 9 8 7 6 8 11 9 5 4 2 1 2 2 2 2 5 6 7 7 8 8 7 8 9 9 8 7 6 6 4 1 3 3 4 4 2 4 5 4 2 2 3 6 7 8 12 15 14 13 12 10 6 5 6 5 3 3 3 2 2 4 3 2 2 3 4 3 7 8 3 7 9 7 6 4 13 16 15 16
22 22 24 26 24 22 19 15 11 10 9 7 10 12 11 7 4 2 2 2 3 3 3 4 6 5 5 6 5 4 5 5 4 4 4 4 5 4 2 3 4 4 2 1 5 5 3 2 3 4 6 6 5 5 6 7 9 11 10 7 5 5 5 4 3 3 3 3 3 2 0 1 2 0 2 3 4 2 2 4 1 5 1 9 16 16 15
23 22 24 26 26 24 21 18 14 12 11 7 6 10 11 10 7 4 3 1 2 4 3 3 4 5 5 5 4 2 4 5 3 3 4 3 3 3 4 4 3 2 1 3 3 3 3 3 3 3 3 2 1 3 3 2 4 7 7 6 6 5 3 5 4 2 2 4 3 2 1 3 4 6 5 1 3 3 4 4 0 4 4 7 16 17 16
23 23 24 25 26 25 23 21 18 14 14 10 5 7 8 9 10 8 5 2 2 3 3 4 4 5 4 4 3 0 1 2 2 3 4 4 3 3 4 4 3 2 3 3 2 3 4 3 2 2 1 2 2 1 2 1 3 5 6 7 10 9 5 4 6 3 2 4 4 3 3 3 6 8 5 2 4 5 6 4 1 3 5 6 13 18 17
24 23 24 25 25 25 24 23 20 17 15 12 7 8 7 7 11 10 5 2 2 4 5 5 4 4 3 3 3 1 1 0 0 1 2 4 3 3 3 4 4 3 3 3 3 4 4 3 2 2 1 1 2 2 1 1 2 2 5 6 8 7 5 4 5 3 3 4 2 2 2 3 5 7 6 6 6 6 5 1 4 7 8 7 12 16 16
26 25 25 25 25 25 25 23 22 20 17 14 11 11 10 7 9 10 5 2 2 4 5 5 4 3 2 2 1 1 1 1 1 1 2 3 1 3 3 2 3 3 2 4 3 3 3 2 2 3 1 1 1 2 1 0 2 1 1 3 4 4 4 3 4 4 4 4 2 1 2 4 5 6 7 9 7 5 3 4 5 10 13 10 11 14 15
26 25 25 26 25 24 25 24 24 23 21 18 14 12 9 4 10 12 6 2 2 4 7 7 4 3 2 5 2 1 1 1 1 2 2 3 2 3 3 2 2 2 2 3 3 3 3 1 1 2 2 0 0 2 1 1 1 1 2 3 2 1 2 2 3 4 3 3 3 0 3 4 5 6 6 8 6 2 4 5 5 13 16 11 10 12 12
27 26 26 26 25 24 25 25 25 25 24 22 18 14 8 1 8 16 12 4 1 4 9 9 5 6 5 2 5 3 2 0 1 2 2 2 3 2 4 3 2 2 3 3 2 1 2 2 2 1 2 2 1 2 2 1 1 2 3 2 2 2 2 2 2 3 2 2 3 2 2 4 8 9 5 4 4 4 4 3 6 12 14 12 11 11 9
28 26 26 26 25 24 24 24 25 26 26 25 22 15 10 7 3 10 17 11 2 2 6 9 10 12 12 5 6 7 6 4 3 3 3 4 3 3 2 3 2 1 1 2 2 1 2 3 2 1 2 1 0 2 3 2 1 2 2 3 1 1 2 2 2 2 2 2 3 3 3 3 6 8 5 4 4 4 7 9 9 9 10 10 10 9 9
28 26 26 25 24 24 23 23 25 26 26 27 25 17 11 10 11 5 12 15 9 5 11 20 23 18 11 4 4 5 4 6 8 7 4 2 2 1 3 2 1 1 2 2 3 1 1 2 2 2 2 1 1 2 3 3 2 2 1 2 1 2 3 4 3 2 2 3 4 4 3 1 3 4 3 4 4 5 8 11 11 9 9 8 9 10 10
27 26 26 25 23 23 22 22 23 24 25 28 26 20 16 15 13 7 5 11 9 9 15 20 18 11 6 10 11 10 9 5 2 6 4 2 1 2 1 1 1 1 0 2 4 3 2 3 3 2 2 2 3 4 3 2 2 2 1 2 0 1 2 3 3 3 2 2 1 2 3 5 6 5 4 5 7 6 7 9 10 8 8 9 10 10 10
27 26 27 25 23 23 22 21 22 22 23 26 26 23 19 15 13 8 3 5 2 4 7 6 5 4 4 8 11 13 16 15 6 0 2 3 2 0 3 2 1 1 3 2 3 3 2 2 2 3 2 2 3 4 3 1 2 2 2 1 2 2 1 4 4 3 2 2 2 2 5 6 7 7 6 6 7 6 6 8 9 8 9 10 11 11 10
27 26 26 24 23 22 22 22 21 21 22 23 25 26 19 10 11 9 4 4 0 1 2 4 5 7 9 9 8 10 16 17 11 5 7 8 4 3 3 4 1 0 3 3 1 4 3 1 2 3 3 2 2 3 2 2 3 3 3 2 2 1 2 4 3 3 3 2 2 4 6 5 5 7 6 6 7 7 7 8 9 9 10 11 11 11 11
27 26 25 24 23 21 21 22 20 21 21 20 24 27 18 7 10 10 4 4 1 2 1 3 6 11 16 12 7 8 13 17 15 10 9 11 8 5 1 1 2 2 1 1 4 4 3 3 3 3 2 2 3 3 2 2 2 3 3 2 3 2 3 3 4 5 5 4 5 7 7 5 4 5 6 6 7 9 9 10 10 11 12 11 11 12 12
26 25 24 24 23 21 22 21 19 21 21 18 23 25 12 5 12 14 7 3 3 2 3 2 5 9 14 10 7 10 11 13 16 16 14 14 15 14 9 4 3 3 4 4 3 2 4 4 3 2 1 1 3 3 2 2 3 4 2 1 0 4 3 3 6 6 4 4 7 7 7 4 3 5 7 8 8 11 12 12 12 12 12 12 12 12 13
26 25 24 24 23 22 21 20 19 20 19 18 22 19 3 9 9 15 15 12 5 2 2 3 5 7 9 8 7 9 9 9 12 15 16 17 18 17 12 6 4 3 3 3 3 2 4 3 2 1 1 1 3 3 2 2 3 3 1 3 0 4 5 6 7 5 4 6 8 6 6 6 5 7 9 9 9 11 12 12 13 12 12 12 12 12 12
27 26 25 24 24 23 21 19 19 18 17 18 18 10 4 8 2 7 15 19 12 2 2 2 3 4 4 6 7 6 6 6 8 10 13 15 15 13 8 6 4 3 3 4 3 3 2 1 2 0 1 2 3 2 1 3 3 1 2 4 2 3 5 7 7 5 2 5 6 5 7 9 8 9 10 9 10 11 12 12 12 11 12 13 12 12 13
28 26 25 24 24 23 21 19 17 16 17 17 14 7 2 2 5 6 13 22 17 6 2 1 2 3 4 5 6 5 5 4 4 8 9 9 8 6 5 4 4 3 3 3 3 3 1 1 1 2 3 2 4 3 1 3 2 1 4 6 2 4 5 2 3 5 6 5 5 6 9 10 8 8 9 8 10 12 11 10 12 13 14 16 14 12 15
29 27 26 26 24 22 20 18 15 15 16 14 7 3 3 1 4 7 16 23 18 6 2 1 2 3 4 4 3 3 4 4 0 3 5 5 5 5 5 4 3 3 4 3 2 2 2 1 2 3 4 3 5 3 2 4 2 1 4 5 2 5 6 3 3 6 9 9 9 9 10 9 8 8 7 7 11 14 11 10 14 17 18 18 18 16 17
29 29 27 25 23 21 19 17 15 14 14 12 7 5 7 9 11 14 16 18 13 3 3 1 3 2 2 4 5 4 2 1 1 2 4 3 3 5 6 4 2 2 3 3 2 2 1 1 2 2 4 3 4 3 3 4 3 3 2 2 3 5 7 6 7 8 10 13 13 11 8 7 8 9 8 8 11 14 13 12 16 21 21 19 18 18 18
31 30 27 24 21 20 19 17 14 13 14 13 13 14 14 12 11 10 10 10 7 2 3 2 1 2 2 3 5 4 1 2 2 3 3 2 0 2 3 3 3 3 3 3 2 1 0 2 3 2 3 3 4 4 3 2 2 3 2 4 5 6 7 8 8 8 8 9 11 11 10 8 7 10 11 10 11 14 15 15 17 19 18 15 12 12 15
32 29 24 20 19 19 18 15 12 11 10 9 10 11 9 7 8 9 9 8 5 2 1 2 1 2 3 2 3 3 0 2 1 1 1 3 1 2 1 3 4 3 2 1 1 1 2 2 3 2 2 3 3 4 2 0 2 4 4 5 6 7 8 8 7 7 6 5 6 8 9 9 9 11 12 11 11 13 15 15 16 14 12 10 8 10 13
31 26 21 18 18 17 15 13 11 8 6 5 6 7 6 8 12 13 11 6 1 2 2 1 2 1 3 3 3 4 0 3 1 2 1 2 2 2 2 2 3 1 1 0 2 2 2 2 3 2 2 2 2 1 3 5 5 6 6 6 7 8 8 7 6 5 5 7 8 7 8 10 11 11 11 10 10 11 11 11 12 12 10 9 9 11 14
28 22 17 16 14 11 9 8 5 3 2 5 9 9 9 12 15 14 10 6 4 2 1 1 1 1 1 0 3 4 1 2 1 1 1 1 2 2 3 3 2 1 1 2 3 2 1 2 3 2 2 1 1 3 6 9 9 8 8 7 7 7 8 7 7 7 7 9 10 9 8 10 10 9 10 10 8 8 9 10 10 10 10 10 10 11 13
23 17 14 11 7 5 4 2 2 0 7 13 15 13 12 11 10 8 5 4 5 5 2 1 1 3 3 2 3 2 1 0 1 2 2 1 1 1 2 4 1 1 2 4 2 1 1 2 3 3 1 2 3 4 6 8 9 8 8 7 5 6 8 8 9 10 10 10 11 9 8 9 8 8 9 9 7 7 9 9 8 10 12 11 10 12 14
19 12 8 6 3 1 1 1 4 10 15 15 10 8 6 3 1 1 1 1 2 2 2 2 3 4 2 2 3 2 0 1 1 2 1 1 0 1 2 2 1 1 2 2 3 1 2 3 3 3 1 3 0 3 5 6 6 6 7 6 5 6 8 8 10 12 11 10 10 11 10 10 10 9 9 8 7 7 8 8 9 12 14 13 14 17 19
15 9 6 5 3 1 3 7 14 17 14 7 2 1 2 1 2 1 2 0 1 1 1 2 4 4 4 3 4 3 1 2 3 2 0 1 0 0 0 0 0 2 3 2 4 1 3 2 2 2 1 2 1 3 4 5 6 5 5 6 6 7 8 8 9 11 11 8 9 9 9 10 10 10 8 7 6 6 7 9 12 16 17 17 19 21 20
17 10 5 3 3 7 13 17 17 12 6 2 1 1 1 1 0 1 1 0 1 2 2 3 3 3 4 4 3 3 1 2 2 2 2 1 1 1 1 1 0 2 2 2 3 2 3 1 1 2 1 3 3 4 5 6 6 5 5 5 7 8 8 8 8 10 10 8 8 8 8 8 9 8 7 7 7 6 7 9 13 17 20 21 22 23 23
15 9 4 6 12 19 22 19 12 4 1 2 1 1 1 1 2 1 1 1 1 3 2 1 1 3 1 3 3 2 2 1 2 3 2 0 1 2 2 0 1 2 1 4 3 2 4 2 1 1 4 5 5 5 6 6 6 5 5 6 7 9 9 8 9 12 12 9 6 8 11 12 11 10 9 9 9 8 8 11 14 19 23 25 24 25 26
17 14 13 16 19 19 15 9 4 1 1 2 1 1 0 1 1 1 0 1 2 2 2 1 2 2 2 2 3 2 2 1 1 3 2 1 2 1 2 0 1 2 1 4 1 3 3 1 1 3 5 6 6 7 7 7 6 6 6 7 7 9 10 9 8 11 14 12 8 8 11 13 13 13 13 14 13 13 14 15 17 20 26 28 27 27 27
17 10 8 10 10 6 3 2 1 0 1 1 1 1 2 2 1 1 1 2 1 1 2 2 1 1 0 1 1 0 1 1 1 2 2 1 1 1 2 2 1 1 2 1 2 3 1 2 3 5 5 6 7 7 7 7 7 6 6 7 10 12 14 12 10 11 15 15 13 13 14 14 14 14 16 16 16 16 17 19 22 25 27 28 28 28 28
10 0 3 2 3 1 0 2 1 1 1 0 1 1 1 2 1 1 2 2 2 1 2 2 1 1 2 1 1 1 1 1 2 2 1 0 1 2 2 0 2 2 1 1 2 1 2 3 4 4 5 7 7 8 8 8 7 6 6 8 11 13 14 13 11 10 11 13 14 15 15 15 15 15 16 18 20 19 18 20 24 28 30 29 28 27 27
5 1 1 2 2 1 0 1 1 0 1 2 2 3 3 3 3 3 3 3 2 2 3 3 0 3 3 2 0 1 0 1 1 1 0 1 2 1 1 2 1 1 1 1 1 1 2 3 3 4 7 9 9 9 9 9 8 7 8 9 10 10 10 10 10 8 7 10 13 15 15 15 15 15 16 20 24 25 23 22 25 28 29 27 25 24 25
1 1 1 1 2 2 0 0 1 1 1 2 3 3 4 4 4 4 4 3 3 3 5 6 3 2 3 2 0 1 1 2 1 1 1 3 2 1 2 1 1 2 2 1 1 2 4 5 4 6 9 10 10 10 9 9 8 8 9 10 11 11 10 10 10 9 9 12 15 16 16 17 17 17 18 21 25 28 29 28 29 30 29 25 23 23 25
1 1 1 1 1 2 0 1 2 3 3 2 3 4 4 4 4 4 3 3 4 5 6 5 2 2 3 2 1 1 0 2 2 1 0 2 1 2 1 2 1 1 1 1 3 5 5 5 4 5 7 8 9 10 10 9 9 9 9 10 11 12 11 11 11 11 13 15 16 15 16 18 20 20 20 21 23 27 30 30 31 32 31 27 25 25 26
1 1 1 1 1 1 2 2 2 2 2 2 3 3 2 2 4 5 5 4 4 5 5 3 1 1 1 0 2 1 1 1 1 1 0 2 1 1 2 2 1 2 2 3 5 5 4 4 5 6 6 7 9 10 10 10 11 12 11 11 12 13 13 12 12 14 17 17 16 15 17 19 21 21 21 20 21 25 29 31 31 31 31 29 26 26 27
2 1 0 1 1 2 4 3 3 4 4 4 4 5 5 4 5 6 5 4 4 5 4 3 3 3 1 0 2 2 1 0 1 0 1 2 1 1 1 1 2 3 3 4 5 4 4 4 5 6 6 7 8 8 9 10 11 11 11 11 13 14 14 13 15 19 20 20 18 18 19 20 21 21 21 20 20 23 28 31 31 29 29 29 27 27 28
2 1 1 1 1 3 3 3 3 4 5 5 5 5 5 5 6 6 6 5 4 1 1 1 1 2 1 1 2 1 1 2 2 2 1 1 2 2 2 2 3 4 4 4 4 4 5 4 4 6 7 8 8 8 8 9 10 10 10 11 13 15 16 16 19 21 21 21 21 22 21 21 21 21 21 21 22 24 27 30 30 28 27 27 28 28 29
1 1 1 2 2 2 2 2 2 3 5 5 4 4 5 5 5 6 8 6 2 2 2 1 1 2 3 1 1 1 2 1 2 3 2 2 2 3 2 3 5 6 5 5 5 5 5 4 5 7 7 7 8 8 8 9 9 10 11 12 14 15 16 17 19 21 21 22 24 24 23 22 23 24 23 24 25 24 22 24 29 30 27 26 27 30 32
1 1 2 2 2 2 2 2 3 4 5 4 4 4 4 4 5 7 9 7 2 2 2 2 2 3 2 1 2 1 1 1 2 1 2 2 1 3 5 6 6 5 5 5 5 5 5 5 6 8 9 10 11 10 9 9 8 9 12 14 15 15 15 16 19 21 21 21 22 24 24 24 25 25 24 23 21 18 15 18 26 30 29 26 27 30 34
Wind_Direction
9 6 4 2 2 4 8 10 3 359 4 16 19 355 319 30 270 285 335 154 160 138 21 242 215 242 260 268 275 279 285 301 305 301 319 6 250 255 247 228 219 230 234 236 272 271 156 189 199 185 189 203 212 210 191 193 197 173 177 209 192 150 127 159 238 294 288 286 277 187 169 137 133 184 163 130 143 159 157 187 182 121 139 130 75 174 218
6 4 3 1 0 1 2 1 357 356 4 10 4 348 336 325 288 305 331 163 150 136 267 255 243 272 284 287 291 294 293 295 294 301 324 314 257 287 271 240 216 252 270 251 232 245 151 197 204 193 188 209 214 208 193 193 194 182 184 189 184 210 201 133 144 36 13 296 299 273 225 171 162 188 165 154 157 141 138 203 114 104 188 162 123 175 241
3 2 2 1 359 359 359 357 355 354 357 359 360 14 296 307 258 309 313 167 137 193 261 295 308 300 305 302 297 296 288 279 276 283 289 264 240 270 272 280 287 267 278 276 237 217 139 192 212 204 200 213 208 201 198 197 195 192 187 171 157 186 186 120 140 164 174 186 204 213 208 202 191 163 152 151 143 133 136 167 114 130 199 154 131 155 142
1 1 1 360 358 356 355 355 356 356 351 349 353 218 264 346 103 58 322 156 188 245 260 271 276 288 303 299 295 302 307 301 289 285 288 275 254 233 261 290 304 284 300 330 273 256 181 180 223 218 208 218 208 196 196 198 196 188 180 166 128 127 179 133 134 161 177 188 218 212 157 162 204 180 153 148 134 121 120 132 167 173 161 130 143 144 133
359 360 359 358 358 355 352 353 353 352 348 344 338 245 249 21 109 177 166 182 227 251 263 252 241 255 275 288 300 307 308 309 314 22 304 282 262 220 257 312 343 293 304 329 300 308 329 169 263 237 213 218 210 191 187 191 192 183 175 168 119 95 163 153 106 123 160 179 221 191 95 113 179 126 188 183 153 121 121 172 199 156 135 68 186 145 141
358 359 358 357 356 355 353 351 348 347 342 319 276 231 219 191 254 236 198 200 212 223 242 236 236 246 251 257 278 291 297 302 313 5 245 298 295 183 323 331 295 297 311 37 307 330 355 359 338 332 302 305 296 190 180 185 187 177 162 161 125 108 124 122 86 69 67 94 104 81 82 72 46 35 359 270 185 153 148 189 189 161 156 169 167 157 152
358 358 358 356 355 354 354 350 345 344 336 286 226 251 249 222 272 282 317 245 227 223 237 239 247 247 241 238 236 256 284 292 296 291 302 329 318 261 313 333 332 331 349 80 77 4 11 355 344 347 329 342 12 56 60 285 202 166 153 164 115 104 104 124 104 74 41 37 70 89 93 80 51 37 14 351 329 141 129 116 104 98 125 144 144 145 140
358 358 358 356 355 354 354 352 347 343 337 266 203 228 235 204 276 302 337 287 265 281 296 311 342 290 256 252 246 244 261 276 297 300 287 300 301 297 321 333 333 333 355 60 78 119 167 123 326 318 304 13 14 76 96 315 326 102 142 196 45 87 163 204 108 77 24 15 67 88 98 94 72 39 17 9 21 78 97 106 98 81 82 123 128 124 122
358 359 359 357 357 356 354 356 352 348 347 275 217 236 247 262 273 277 303 302 304 337 336 347 351 302 272 253 267 276 260 276 324 318 275 245 243 276 307 307 309 331 16 44 26 282 244 158 333 350 89 86 47 66 78 347 14 36 55 64 32 81 133 89 73 81 354 339 54 88 93 86 70 33 11 1 359 71 105 116 125 125 125 125 125 131 148
358 360 360 359 359 359 359 359 357 359 1 322 272 278 300 306 298 280 274 304 328 345 330 332 304 265 261 259 284 291 276 285 314 317 284 253 235 253 251 207 261 351 26 44 285 278 266 197 132 53 79 86 78 70 52 47 54 41 42 64 30 87 121 109 82 100 284 305 335 80 74 68 50 348 341 336 325 89 107 77 93 135 136 139 152 162 155
357 359 1 1 0 2 3 359 358 4 0 318 282 287 311 327 312 294 259 289 306 314 310 310 219 246 282 281 280 279 277 283 277 224 261 297 288 270 239 143 103 340 232 229 246 247 229 190 156 108 79 69 62 57 47 40 37 33 69 81 35 72 104 121 95 109 210 283 318 36 66 93 257 307 303 213 271 329 109 91 81 111 119 120 131 135 140
354 358 1 1 1 4 6 360 356 357 341 301 271 264 275 309 307 284 247 295 286 285 289 271 242 248 269 276 277 269 262 268 262 226 234 284 289 267 213 113 99 237 243 257 289 300 190 168 153 76 52 56 57 52 45 34 21 19 51 88 99 83 89 97 69 101 172 288 12 75 139 235 289 341 1 94 93 91 98 81 45 22 95 112 120 131 143
352 357 2 4 3 6 9 5 357 352 338 297 263 256 262 293 315 280 268 309 286 267 293 294 281 268 265 267 267 256 248 255 259 243 235 254 264 260 221 147 172 233 252 304 19 55 62 2 343 20 20 24 40 44 39 29 18 16 26 52 97 109 105 97 63 78 109 33 42 111 205 297 22 17 25 93 99 107 90 70 16 343 111 132 131 135 139
350 356 5 10 10 9 9 7 3 358 347 307 265 260 264 274 287 291 311 323 286 271 280 293 294 289 275 271 269 265 276 292 289 262 245 236 238 250 247 202 219 244 231 67 36 51 76 35 16 17 6 7 16 16 14 17 18 18 19 26 66 104 114 104 70 52 100 97 59 63 209 298 69 338 256 142 145 198 109 99 316 320 326 146 137 133 134
348 354 5 12 14 14 12 10 8 3 356 336 273 257 258 251 246 270 304 303 283 292 265 229 280 309 302 286 281 300 333 347 350 313 293 268 243 247 244 246 270 301 87 88 59 51 67 65 54 37 15 24 353 318 336 359 0 7 18 32 50 66 104 130 115 75 102 110 93 92 188 226 206 211 235 210 142 153 112 100 17 306 278 172 144 138 138
348 352 1 9 14 16 17 16 14 9 3 358 321 275 264 236 226 244 269 256 260 290 256 219 251 294 299 292 285 256 31 342 316 331 334 316 298 285 267 276 312 17 60 69 78 68 58 64 90 108 144 177 192 273 325 3 342 339 358 38 55 53 51 92 101 102 122 113 120 165 196 236 205 196 201 129 126 128 97 69 274 238 233 188 151 144 144
348 350 358 6 11 14 18 19 19 16 8 358 334 301 284 233 214 225 245 251 247 264 250 217 223 275 299 325 329 358 108 252 272 62 325 286 291 318 315 324 344 16 73 69 50 57 69 84 93 92 200 223 144 155 267 17 55 341 342 21 48 47 30 62 95 122 140 115 114 181 216 245 206 187 169 149 135 102 86 118 229 188 183 187 162 151 149
348 349 356 3 7 11 15 16 17 17 10 359 335 303 289 261 224 220 229 263 261 264 260 224 205 234 219 175 301 314 149 271 355 115 275 284 321 335 317 341 1 2 70 80 68 74 82 92 133 128 139 299 97 132 202 132 124 179 14 42 47 40 30 65 111 129 130 116 109 224 261 240 200 177 162 153 129 89 122 220 217 168 168 179 165 153 153
346 349 356 1 3 6 10 12 13 13 10 5 349 318 301 260 216 214 217 251 232 256 290 289 277 278 179 148 150 322 171 246 281 99 25 329 302 299 318 354 18 357 35 67 81 106 98 73 220 133 109 295 201 131 140 144 162 184 124 89 73 75 58 67 115 131 129 114 102 57 287 243 175 155 154 151 139 156 215 222 177 159 162 162 154 153 153
344 348 354 359 359 2 5 7 9 9 8 9 359 335 326 318 211 212 209 212 251 275 284 287 307 337 338 133 148 151 137 348 337 103 115 255 269 16 23 351 328 8 34 63 76 90 121 171 237 117 123 197 199 120 121 109 118 179 161 135 162 160 117 87 144 147 115 70 89 122 252 212 155 140 144 168 176 200 197 143 131 149 152 146 146 149 143
343 346 352 355 355 357 360 2 5 6 5 7 4 347 336 2 334 232 222 223 243 336 288 296 319 321 308 277 167 153 153 166 185 159 172 236 265 76 105 230 233 120 95 120 131 178 157 164 206 161 140 182 89 130 148 118 110 216 175 132 141 144 128 159 200 179 133 137 172 209 246 213 151 142 160 197 191 172 152 135 132 145 147 143 144 144 138
341 345 350 351 351 352 355 357 0 2 1 2 3 352 329 348 6 326 236 225 223 234 269 290 302 303 299 320 78 103 135 169 187 187 170 212 293 142 178 227 278 204 197 110 110 216 205 147 172 159 137 113 78 124 135 118 141 250 357 84 139 198 170 162 160 154 153 167 203 248 293 17 91 113 140 143 131 137 142 140 141 148 150 147 144 143 141
339 344 346 347 347 348 349 351 354 358 358 358 359 350 333 339 1 4 230 220 234 255 263 279 297 313 0 34 34 28 28 40 191 202 169 144 280 295 244 250 324 297 240 120 146 183 185 171 173 138 133 149 116 105 95 96 158 202 43 52 123 195 146 106 108 146 141 75 21 356 45 65 66 66 88 115 119 128 134 133 137 141 140 140 141 141 140
338 342 343 344 344 344 345 347 348 351 353 354 353 348 343 347 358 356 248 215 274 304 281 289 323 341 1 23 23 17 17 21 22 338 56 79 127 318 311 278 243 352 313 263 192 155 131 174 160 95 115 162 138 126 116 97 162 159 106 50 314 280 121 88 95 136 132 44 3 68 90 102 100 88 81 87 100 115 127 129 134 134 131 134 138 136 138
337 340 340 340 342 342 342 343 343 344 347 348 348 348 348 359 8 355 291 249 312 50 305 314 318 332 355 22 30 15 14 20 30 51 36 37 90 154 252 268 232 204 272 271 85 80 77 107 107 102 128 145 131 146 152 149 166 154 121 148 232 243 103 97 89 95 100 122 162 112 84 88 103 104 107 109 107 109 112 116 123 125 125 131 136 136 139
335 337 337 338 340 340 340 340 340 340 340 341 343 343 345 15 28 11 310 268 311 98 34 291 284 327 352 7 11 8 18 23 28 43 39 28 40 73 124 285 5 11 330 32 74 96 106 93 83 93 115 108 109 131 138 133 137 110 100 187 202 104 90 118 118 100 87 103 137 119 88 65 68 92 109 123 124 121 119 119 123 125 127 132 137 139 142
332 334 335 336 337 338 338 338 338 337 335 337 340 340 341 73 54 35 30 12 3 20 359 294 266 317 335 337 351 12 25 27 26 34 38 34 37 44 50 57 38 22 29 36 40 75 82 66 62 74 94 62 74 92 100 84 89 88 70 291 47 83 98 131 124 124 150 177 166 146 122 120 149 138 126 126 127 125 124 127 131 134 139 142 140 139 142
329 331 333 333 334 335 335 335 336 335 333 333 337 341 2 129 75 39 35 31 32 161 216 260 269 312 324 318 338 12 29 28 26 31 35 36 37 38 40 50 48 37 53 56 39 48 63 70 80 50 338 60 72 74 68 49 59 70 7 303 161 142 171 168 141 145 196 183 167 150 118 122 148 146 134 132 129 126 129 135 137 139 143 143 141 141 142
327 328 330 330 331 331 329 331 335 334 331 332 338 351 119 153 160 6 15 16 18 59 172 305 312 315 306 298 315 348 14 18 25 36 38 37 35 30 30 43 46 51 90 92 83 77 71 108 149 322 342 105 114 110 64 59 67 76 288 285 263 165 165 160 140 122 115 144 154 144 121 127 145 144 136 133 129 128 132 136 136 139 142 142 142 145 145
326 326 327 328 328 326 324 326 331 331 330 332 339 360 60 213 245 286 342 354 357 6 111 59 328 302 286 288 301 317 318 328 21 42 38 32 25 17 25 44 43 49 67 65 77 104 92 1 354 330 331 69 103 117 117 97 108 243 290 301 305 116 118 125 131 126 122 126 133 121 117 125 135 132 129 131 130 130 133 135 136 139 142 143 143 145 147
325 325 326 325 323 322 319 319 323 326 325 325 340 45 74 282 262 294 324 334 337 347 114 136 291 302 315 306 281 282 293 290 353 46 19 8 4 4 20 43 48 48 58 49 32 83 92 34 14 347 336 34 83 109 124 104 113 262 307 326 359 122 122 90 79 112 120 118 109 101 107 121 128 125 127 134 132 130 131 134 137 139 141 144 145 146 147
326 325 325 323 319 318 315 311 313 315 309 302 290 262 261 277 290 299 313 322 324 325 124 54 328 316 322 306 285 277 287 298 77 39 7 355 4 6 13 33 44 37 66 78 53 22 77 117 69 2 340 21 76 91 82 98 145 214 258 32 70 110 121 115 108 114 123 123 117 108 112 134 143 138 139 141 135 132 132 136 139 140 141 141 141 142 143
327 325 323 319 317 315 310 304 302 299 291 288 283 276 276 286 298 304 316 323 312 253 152 99 358 268 261 286 291 292 332 37 21 20 359 308 345 43 7 0 19 24 36 67 81 333 71 97 78 25 340 8 80 91 61 61 165 195 160 111 106 105 111 117 120 123 128 128 128 134 147 157 148 136 136 136 134 135 139 140 140 140 139 138 137 138 138
327 324 320 317 314 310 304 299 294 287 282 282 282 281 288 305 310 312 319 318 309 302 2 90 104 282 301 339 311 291 64 87 47 40 340 288 306 99 27 337 12 35 12 33 78 44 19 57 84 65 344 358 60 84 64 320 165 144 123 112 108 105 106 108 111 115 114 99 99 120 134 133 127 129 134 136 138 142 144 144 142 142 142 141 140 139 137
326 321 317 315 312 307 301 295 287 276 262 258 267 278 298 308 306 308 307 301 358 30 336 9 107 317 326 357 314 287 18 95 125 163 159 288 316 97 109 16 25 35 271 87 72 46 26 97 115 92 357 10 45 90 182 178 164 143 125 120 119 116 115 116 114 113 111 104 102 109 120 123 128 136 141 144 146 146 145 144 145 145 143 142 143 142 138
326 321 317 316 313 306 297 286 266 242 262 287 287 289 292 294 297 297 282 248 201 176 241 333 78 161 185 229 279 284 10 68 278 276 71 16 336 23 77 77 63 291 320 50 50 15 355 106 106 64 11 37 192 211 182 161 155 149 142 145 146 131 125 131 130 119 113 115 118 122 126 128 132 140 145 145 145 143 144 147 147 145 143 143 145 143 140
327 323 319 317 313 308 305 284 164 329 312 302 296 294 290 285 287 289 272 225 204 198 167 108 248 229 189 191 256 287 23 47 289 350 14 16 260 336 48 81 107 287 17 37 33 325 348 42 84 82 358 263 219 191 162 150 153 155 148 151 151 130 125 133 130 122 120 124 128 132 135 134 137 146 149 147 145 145 149 151 148 145 146 146 145 144 144
331 329 332 341 348 356 352 323 320 317 311 303 297 296 292 283 266 302 316 140 193 219 141 131 243 248 177 181 257 275 175 228 7 27 331 227 175 6 28 83 143 83 47 352 270 216 49 23 56 83 347 299 214 138 145 146 150 151 146 148 148 135 132 138 137 134 136 142 148 154 155 151 152 157 156 152 152 150 147 147 144 142 142 143 144 144 143
352 350 352 4 10 258 271 309 318 318 313 306 301 302 305 35 67 321 289 85 157 259 199 179 227 220 176 200 263 271 173 98 52 42 280 243 281 300 48 71 322 79 79 290 278 41 65 20 25 64 353 311 113 147 162 148 140 150 152 146 143 138 138 145 149 148 150 155 160 161 160 157 159 162 159 155 151 144 142 144 143 142 142 144 145 144 144
11 8 358 2 329 301 307 318 323 322 322 337 43 57 32 32 68 218 227 52 342 262 216 191 223 224 176 173 230 265 225 123 108 136 175 221 231 159 102 76 259 92 93 259 275 66 91 110 77 88 231 240 204 188 176 149 148 166 163 142 139 143 144 148 151 148 144 144 150 153 151 148 151 156 159 157 149 143 146 149 146 143 143 144 147 150 152
0 354 327 307 307 307 312 321 326 329 21 44 26 33 46 283 268 250 97 78 278 265 240 176 265 301 286 145 149 209 259 237 141 127 117 312 306 76 79 263 257 80 101 246 253 80 86 88 74 203 221 214 191 180 168 156 163 174 158 142 144 145 143 145 149 148 145 144 150 156 154 151 150 154 158 155 146 142 150 153 148 143 144 148 153 157 158
322 309 294 296 301 303 309 322 333 6 56 47 15 333 278 232 258 325 52 185 219 260 277 224 189 231 244 152 146 181 243 278 68 84 84 287 273 90 90 325 20 63 220 241 251 66 76 96 276 254 228 196 178 174 166 165 175 174 157 152 153 150 147 147 150 152 153 153 157 162 160 156 156 161 162 157 149 148 154 157 151 146 147 152 157 159 159
322 304 279 288 296 297 300 311 308 71 52 55 72 340 311 295 299 309 270 266 270 252 257 259 240 228 300 78 103 186 284 2 61 82 98 241 277 64 64 41 43 183 231 247 61 76 146 188 221 234 210 175 172 176 170 170 176 168 157 162 164 159 156 155 154 157 160 161 163 168 167 164 165 170 170 165 156 153 158 161 157 152 151 154 159 162 164
337 33 174 265 292 253 248 305 301 125 124 175 146 160 227 266 279 231 230 261 277 245 245 260 211 198 236 256 80 55 320 355 51 75 84 302 20 64 69 271 241 229 252 26 53 163 217 225 227 213 178 164 174 180 173 173 173 163 161 173 172 163 159 158 157 158 163 166 167 170 172 173 173 173 174 171 165 161 163 164 161 158 157 159 162 166 169
350 66 90 352 318 289 129 327 322 177 194 210 190 170 180 204 226 224 218 222 237 280 305 313 262 184 223 262 52 107 217 18 51 89 158 64 48 55 193 225 239 51 57 29 338 271 263 265 239 178 164 172 181 179 174 177 178 166 163 173 175 167 163 165 165 164 168 171 170 171 176 179 176 173 175 176 172 168 167 167 164 163 164 165 167 170 174
317 255 76 59 301 289 169 155 280 250 207 211 203 185 182 196 215 224 233 252 276 295 298 294 270 206 216 247 158 130 113 81 87 224 129 92 88 253 234 183 62 44 45 342 284 253 243 245 227 187 177 178 178 175 176 179 177 168 165 172 177 175 171 171 172 175 179 177 173 173 178 181 178 174 174 176 174 170 169 169 168 168 168 171 174 174 177
276 283 85 108 288 296 188 192 220 217 213 226 225 209 205 217 238 251 256 258 266 278 284 283 264 202 201 185 143 183 252 81 99 245 47 91 132 270 353 53 82 178 145 201 241 243 243 244 226 197 184 175 168 172 177 179 177 175 172 173 177 177 175 174 178 182 184 180 175 172 174 175 174 170 167 169 172 172 171 171 172 172 175 179 182 181 180
299 329 118 147 259 253 225 248 286 282 261 267 274 263 260 283 291 283 269 254 256 271 274 266 202 150 220 89 105 156 247 49 90 237 257 88 98 343 23 28 296 259 186 194 216 229 241 238 214 194 184 173 168 172 176 178 180 179 174 173 177 179 176 177 181 183 182 179 175 174 173 172 170 166 161 161 169 174 173 172 174 176 179 183 186 184 182
246 305 243 202 285 266 249 274 326 318 303 315 333 337 341 331 299 284 278 268 256 250 238 206 143 126 205 329 78 101 208 204 141 223 31 67 98 161 121 127 263 274 252 223 216 223 239 232 195 170 171 175 174 174 175 178 181 180 175 174 177 177 175 175 177 177 177 174 172 173 175 173 171 169 164 162 169 176 176 175 177 179 182 186 187 186 186
220 250 221 190 262 286 296 340 354 321 313 336 350 342 332 319 302 299 298 278 253 222 69 37 81 91 99 75 64 49 265 232 153 113 99 147 171 159 131 172 218 232 235 230 224 227 235 221 174 165 179 185 179 174 173 174 178 181 179 173 172 174 176 175 172 172 174 173 170 170 172 173 173 173 172 170 173 177 179 181 184 187 188 189 190 190 189
270 270 245 222 220 242 279 331 322 288 299 315 314 303 307 307 301 306 309 301 296 79 61 270 215 87 70 70 110 193 244 217 106 113 172 210 176 139 154 213 228 225 227 238 241 238 232 210 178 175 181 181 179 180 179 174 175 180 178 172 170 172 174 173 171 171 175 175 172 171 174 178 179 179 179 178 178 178 181 187 193 196 195 190 189 190 191
233 234 270 280 266 243 252 269 261 256 267 274 268 276 295 293 286 305 320 324 321 166 202 219 116 91 104 205 193 171 163 66 79 125 210 230 189 161 182 213 229 225 225 243 255 249 233 212 193 184 180 180 183 184 178 170 171 176 176 173 171 170 172 174 173 172 174 175 174 175 178 181 183 183 182 179 178 179 184 191 195 199 201 197 192 190 192